Location: Hint Schweig
(46.5833°N, 8.5000°E)
Time: 02:29:34
(UTC+00:00)

Daily predictions for brighter satellites

Satellite Brightness Start Highest point End
(mag) Time Altitude Azimuth Time Altitude Azimuth Time Altitude Azimuth
CENTAUR R/B 4.3 02:14:21 38° E 02:14:21 38° E 02:19:52 10° ESE
Lacrosse 5 4.5 02:52:48 17° E 02:52:48 17° E 02:54:33 10° ENE
Cosmos 2263 Rocket 3.9 03:01:26 28° ENE 03:01:26 28° ENE 03:04:28 10° NE
SJ 16-02 4.1 03:08:47 16° ENE 03:08:47 16° ENE 03:10:15 10° NE
CZ-4C R/B 4.2 03:25:49 16° SE 03:28:08 22° ESE 03:32:19 10° ENE
BREEZE-M DEB (TANK) 4.4 03:30:34 77° NNW 03:30:49 78° N 03:35:12 10° E
ATLAS 3B R/B 3.6 03:30:35 38° N 03:32:15 44° NE 03:39:01 10° ESE
Cosmos 1943 4.1 03:36:00 42° SE 03:36:00 42° SE 03:39:40 10° SSE
Lacrosse 4 Rocket 3.6 03:38:11 24° ESE 03:38:11 24° ESE 03:40:03 10° SE
Cosmos 2227 Rocket 4.5 03:57:13 11° N 03:57:13 11° N 03:57:36 10° N
Cosmos 923 Rocket 4.4 03:53:37 56° NE 03:54:13 60° ENE 03:59:28 10° SE
ALOS 3.1 03:49:43 10° NNE 03:53:16 46° NE 03:53:16 46° NE
NOSS 3-2 (C) 4.1 04:00:07 56° WSW 04:00:28 56° WSW 04:08:45 10° SSE
NOSS 3-4 (A) 3.3 04:00:50 70° SSW 04:01:35 86° SE 04:07:56 10° NE
NOSS 3-4 (C) 3.3 04:00:54 68° SSW 04:01:43 85° SE 04:08:04 10° NE
CENTAUR R/B 3.2 04:01:35 54° W 04:02:27 57° WSW 04:11:02 10° SSE
ARGOS Delta rocket 4.1 04:00:16 10° NNE 04:04:43 66° NNE 04:04:43 66° NNE
USA 306 4.5 04:10:52 27° NNE 04:10:52 27° NNE 04:13:42 10° ENE
Cosmos 158 Rocket 3.8 04:10:38 74° NNE 04:10:58 79° ENE 04:15:57 10° SSE
SL-4 R/B 3.3 04:15:02 31° NE 04:15:02 31° NE 04:17:22 10° ENE
Cosmos 1151 Rocket 3.7 04:17:01 44° S 04:17:01 44° S 04:19:58 10° S
Cosmos 1782 3.4 04:16:34 51° NE 04:17:07 56° ENE 04:21:05 10° SSE
SKYMED 2 4.2 04:13:10 10° SSE 04:17:24 55° ENE 04:19:24 29° N
Cosmos 1844 Rocket 4.1 04:12:29 10° S 04:17:37 38° ESE 04:22:48 10° NE
ATLAS 2AS CENTAUR R/B 3.0 04:15:30 21° SW 04:21:13 90° ESE 04:29:08 10° NE
ERS-2 4.2 04:18:08 10° SSE 04:19:17 19° S 04:19:17 19° S
Cosmos 1680 Rocket 3.6 04:20:02 37° NNW 04:22:14 78° ENE 04:27:32 10° SSE
ATLAS 5 CENTAUR R/B 3.7 04:31:19 19° N 04:31:19 19° N 04:32:16 10° NNE
Atlas Centaur 2 4.4 04:26:40 12° SSW 04:29:40 16° S 04:33:08 10° SE
RESURS DK-1 3.2 04:27:42 10° S 04:31:44 50° ESE 04:35:46 10° NE
CRYOSAT 2 4.3 04:27:36 10° S 04:32:27 88° E 04:37:22 10° N
ATLAS CENTAUR R/B 1.8 04:32:06 46° NNE 04:32:41 51° NE 04:36:30 10° SE
Lacrosse 5 1.7 04:32:02 52° WSW 04:33:18 85° NW 04:38:25 10° NE
ADEOS 3.4 04:28:57 10° N 04:34:11 71° WNW 04:39:22 10° SSW
Cosmos 1328 Rocket 3.4 04:35:39 65° W 04:35:41 65° W 04:40:03 10° S
H-2A R/B 4.5 04:36:34 10° NNE 04:40:11 34° E 04:43:44 10° SSE
Cosmos 2112 Rocket 3.9 04:38:53 26° NNW 04:42:00 85° WSW 04:47:20 10° SSE
Cosmos 2263 Rocket 2.7 04:43:11 37° NW 04:43:11 37° NW 04:48:25 10° NNE
Gbstr 26 Del rocket 2.5 04:43:34 70° WSW 04:43:47 73° SSW 04:47:40 10° SE
SJ 16-02 1.7 04:45:52 44° NW 04:45:52 44° NW 04:49:39 10° N
Cosmos 1898 Rocket 3.5 04:47:30 10° SSW 04:52:49 88° ESE 04:58:12 10° NNE
Meteor 1-26 Rocket 4.4 04:48:59 17° NNW 04:53:17 50° W 04:58:39 10° SSW
FALCON 9 DEB 2.7 04:56:35 72° W 04:56:49 80° NNW 05:00:03 10° ENE
FALCON 9 DEB 2.7 04:56:45 72° WNW 04:56:57 76° NNW 05:00:10 10° ENE
FENGYUN 3A 4.0 04:53:55 10° N 04:58:56 40° WNW 05:03:55 10° SW
Envisat 4.3 04:54:34 10° NNE 04:59:25 42° E 05:04:14 10° S
Cosmos 1743 Rocket 3.7 04:55:47 10° S 05:00:13 79° E 05:04:43 10° NNE
Cosmos 1408 Rocket 3.6 04:57:54 10° SSW 05:02:15 53° WNW 05:06:38 10° N
H-2A R/B 4.2 04:59:21 10° NNE 05:02:49 32° E 05:06:16 10° SSE
Cosmos 2082 Rocket 4.4 05:00:01 10° N 05:03:54 18° NE 05:07:45 10° E
Cosmos 2181 Rocket 4.2 04:58:32 10° NNW 05:04:21 43° W 05:10:04 10° SSW
NOSS 7 (H) 4.3 05:01:45 12° SSW 05:04:46 73° SE 05:07:43 10° NE
COSMO-SKYMED 1 2.8 05:01:17 10° S 05:05:28 47° W 05:08:00 22° NW
USA 307 4.1 05:05:08 24° NNW 05:06:47 32° N 05:10:42 10° ENE
Cosmos 1937 Rocket 3.4 05:04:45 10° SSW 05:09:54 90° NNE 05:15:08 10° NNE
USA 308 4.0 05:11:14 22° NW 05:13:11 33° N 05:17:06 10° ENE
Lacrosse 4 Rocket 3.1 05:14:32 18° WSW 05:14:32 18° WSW 05:17:06 10° SSW
Meteor 2-3 Rocket 4.2 05:09:12 10° SW 05:14:28 37° WNW 05:19:49 10° N
Cosmos 1833 Rocket 4.3 05:09:41 10° N 05:14:39 31° NE 05:19:36 10° ESE
MOS 1 Rocket 3.4 05:11:00 10° SSE 05:15:49 89° E 05:20:58 10° NNW
CZ-4C R/B 2.1 05:11:05 11° SW 05:15:54 63° NW 05:21:56 10° NE
Cosmos 2154 Rocket 4.1 05:09:50 10° S 05:16:03 82° E 05:22:21 10° N
CZ-4B R/B 3.2 05:13:18 10° N 05:17:41 52° WNW 05:21:57 10° SSW
Cosmos 1689 Rocket 2.9 05:15:55 10° SSW 05:18:12 30° WSW 05:18:12 30° WSW
Meteor 1-27 Rocket 4.3 05:13:09 10° N 05:18:53 63° ENE 05:24:42 10° SSE
Cosmos 1805 Rocket 4.1 05:15:03 10° S 05:19:25 63° E 05:23:51 10° NNE
FALCON 9 DEB 3.0 05:18:33 33° W 05:19:42 56° NNW 05:22:53 10° NE
Meteor 1-10 Rocket 4.1 05:15:20 10° NNW 05:20:54 81° W 05:26:31 10° S
ATLAS 3B R/B 3.0 05:17:51 17° NW 05:23:09 54° WSW 05:30:07 10° SSE
Aureole 2 Rocket 1.7 05:21:18 10° SSW 05:23:49 75° ESE 05:26:23 10° NNE
COSMOS 2406 4.3 05:19:25 10° NNW 05:24:54 43° NE 05:30:22 10° SE
Cosmos 1862 3.3 05:22:59 10° SSW 05:27:00 62° W 05:31:02 10° N
YAOGAN 6 2.7 05:24:58 10° NNE 05:28:28 75° E 05:31:56 10° S
Genesis I 3.3 05:24:54 10° SW 05:28:35 50° NW 05:32:21 10° NNE
ALOS 3.6 05:28:08 10° NNW 05:31:20 18° WNW 05:31:45 18° WNW
Cosmos 2278 Rocket 4.4 05:28:18 10° SSE 05:33:06 30° ESE 05:37:58 10° NE
Cosmos 2327 Rocket 4.4 05:29:25 10° SSW 05:35:30 70° W 05:41:36 10° N
Cosmos 990 Rocket 4.5 05:30:51 10° SW 05:35:43 38° WNW 05:40:38 10° N
Cosmos 2074 Rocket 4.2 05:31:04 10° SSW 05:37:00 47° WNW 05:42:59 10° N
PSLV R/B 3.6 05:33:26 10° N 05:37:17 67° WNW 05:41:02 10° SSW
Meteor 1-31 Rocket 4.4 05:38:41 10° NNW 05:40:29 15° NW 05:40:29 15° NW
USA 305 3.8 05:38:55 15° NW 05:42:10 38° NNE 05:46:13 10° E
BREEZE M DEB (TANK) 3.1 05:35:07 10° SW 05:42:23 58° SSE 05:45:03 10° ENE
Cosmos 405 Rocket 2.9 05:39:20 10° SSW 05:42:52 43° WNW 05:46:29 10° N
SL-24 DEB 4.2 05:38:14 10° S 05:43:00 75° W 05:47:48 10° N
EO 1 Delta rocket 4.4 05:42:06 10° SSW 05:46:50 39° W 05:51:11 10° NNW
Cosmos 1812 3.3 05:43:44 10° NNW 05:47:15 34° W 05:50:45 10° SSW
Cosmos 1295 Rocket 4.4 05:42:24 10° SSW 05:48:27 71° W 05:54:33 10° N
Cosmos 2228 Rocket 3.6 05:45:40 10° NNW 05:49:47 38° W 05:53:50 10° SSW
USA 306 3.7 05:47:01 13° NW 05:50:39 41° NNE 05:54:44 10° E
Cosmos 1633 Rocket 3.9 05:48:40 10° S 05:52:59 56° E 05:57:20 10° NNE
NOSS 3-4 (A) 4.4 05:48:19 11° W 05:53:17 29° NNW 05:58:52 10° NNE
NOSS 3-4 (C) 4.4 05:48:23 11° W 05:53:24 29° NNW 05:59:00 10° NNE
SL-4 R/B 2.5 05:50:37 13° WNW 05:53:50 42° N 05:57:17 10° E
USA 234 3.5 05:51:23 10° NE 05:57:56 75° SE 06:04:29 10° SW
Cosmos 1356 3.4 05:55:06 10° S 05:58:30 88° E 06:01:56 10° NNE
FALCON 9 DEB 3.8 05:56:58 11° W 05:59:42 33° NNW 06:02:40 10° NE
Cosmos 1844 Rocket 3.2 05:56:12 10° WSW 06:01:29 39° NW 06:06:49 10° NNE
FALCON 9 DEB 4.0 05:59:52 10° NW 06:03:08 41° NNE 06:06:27 10° E
Cosmos 1707 Rocket 3.5 06:02:35 10° NNW 06:06:54 65° W 06:11:10 10° S
EXPRESS MD2 4.3 06:03:40 10° WNW 06:07:44 82° SSW 06:16:18 10° ESE
MOS 1-B 4.4 06:02:44 10° N 06:08:30 64° WNW 06:14:13 10° SSW
COSMOS 2455 2.9 06:03:34 10° SW 06:09:35 70° NW 06:15:38 10° NNE
RESURS DK-1 3.7 06:06:52 10° W 06:10:02 21° NW 06:13:12 10° N
BREEZE-M (TANK) 3.8 06:04:41 10° SW 06:11:02 43° SSE 06:13:30 10° E
ATLAS CENTAUR R/B 2.9 06:08:40 10° WNW 06:11:14 17° WSW 06:13:52 10° SSW
NOAA 6 4.2 06:06:41 10° N 06:11:37 50° WNW 06:16:33 10° SW
BREEZE-M DEB 4.3 06:03:51 10° WNW 06:11:43 34° SW 06:14:39 10° SSE
ATLAS 2AS CENTAUR R/B 3.7 06:06:05 10° W 06:13:11 34° NNW 06:20:08 10° NE
ERBS 4.5 06:12:02 10° NNW 06:13:49 14° N 06:15:37 10° NE
H-2A R/B 4.0 06:11:09 10° NNW 06:14:09 21° WNW 06:17:06 10° WSW
Cosmos 1844 4.2 06:10:17 10° WSW 06:15:25 37° NW 06:20:36 10° NNE
CZ-4B DEB 4.5 06:11:32 10° N 06:16:45 47° WNW 06:21:56 10° SW
Lacrosse 5 2.8 06:12:20 10° W 06:16:51 31° NNW 06:21:23 10° NE
